This is the latest recevied weather packets stored in our database for station/object FREPRT-WX. If no packets are shown the sender has not sent any weather packets the latest 10 day(s).
| Time | Temp. | Humidity | Pressure | Rain* | Wind** | Luminosity | Snow |
|---|---|---|---|---|---|---|---|
| 1777832138 | 15° C | 48% | 983.5 hPa | 0 mm | - | - | - |
| 1777831270 | 15° C | 48% | 983.5 hPa | 0 mm | - | - | - |
| 1777830337 | 14.44° C | 46% | 983.9 hPa | 0 mm | - | - | - |
| 1777829457 | 14.44° C | 45% | 983.2 hPa | 0 mm | - | - | - |
| 1777827666 | 14.44° C | 45% | 983.2 hPa | 0 mm | - | - | - |
| 1777826738 | 13.89° C | 49% | 983.7 hPa | 0 mm | - | - | - |
| 1777825854 | 13.33° C | 51% | 982.9 hPa | 0 mm | - | - | - |
| 1777824937 | 13.33° C | 51% | 982.9 hPa | 0 mm | - | - | - |
| 1777824074 | 12.78° C | 51% | 982.9 hPa | 0 mm | - | - | - |
| 1777823138 | 12.78° C | 52% | 984.2 hPa | 0 mm | - | - | - |
| 1777822254 | 12.22° C | 54% | 984 hPa | 0 mm | - | - | - |
| 1777821338 | 12.22° C | 54% | 983.9 hPa | 0 mm | - | - | - |
| 1777820470 | 11.67° C | 54% | 983.9 hPa | 0 mm | - | - | - |
| 1777819538 | 11.11° C | 57% | 983.8 hPa | 0 mm | - | - | - |
| 1777818660 | 10° C | 57% | 983.9 hPa | 0 mm | - | - | - |
| 1777817738 | 11.11° C | 57% | 983.9 hPa | 0 mm | - | - | - |
| 1777816874 | 10.56° C | 57% | 983.9 hPa | 0 mm | - | - | - |
| 1777815938 | 10° C | 66% | 984.2 hPa | 0 mm | - | - | - |
| 1777815054 | 9.44° C | 66% | 984.2 hPa | 0 mm | - | - | - |
| 1777814138 | 7.78° C | 66% | 984.1 hPa | 0 mm | - | - | - |
| 1777813270 | 6.67° C | 66% | 984.1 hPa | 0 mm | - | - | - |
| 1777812338 | 6.67° C | 61% | 983.4 hPa | 0 mm | - | - | - |
| 1777811459 | 6.67° C | 65% | 984.4 hPa | 0 mm | - | - | - |
| 1777810538 | 6.11° C | 65% | 984.3 hPa | 0 mm | - | - | - |
| 1777809675 | 5° C | 65% | 984.3 hPa | 0 mm | - | - | - |
* Rain latest hour (hover to see other rain measurements)
** Current wind speed in m/s (hover to see current wind gust speed)